RYR87J EIDW-EHAM

Flight info

Callsign RYR87J
Flight time N/A
Altitude 35000
Route ENDEQ1E ENDEQ Q36 ALAVA Z195 MALUD UL975 WAL M16 DOLAS L603 LAMSO
Aircraft B38M/M-SDE1FGHILORVWXY/HB1

Departure

Time 2026-04-30 13:20
Airport Dublin Airport (EIDW)

Arrival

Time N/A
Airport Amsterdam Airport Schiphol (EHAM)
Time Latitude Longitude Altitude Speed Heading
2026-04-30 13:04 53.42313 -6.24548 226 ft 0 kts 134°
2026-04-30 13:06 53.42315 -6.24551 226 ft 1 kts 140°
2026-04-30 13:07 53.42315 -6.24552 226 ft 0 kts 142°
2026-04-30 13:07 53.42322 -6.24560 226 ft 2 kts 141°
2026-04-30 13:07 53.42335 -6.24577 226 ft 2 kts 143°
2026-04-30 13:07 53.42348 -6.24593 226 ft 2 kts 145°
2026-04-30 13:08 53.42362 -6.24608 226 ft 2 kts 147°
2026-04-30 13:08 53.42376 -6.24623 226 ft 2 kts 151°
2026-04-30 13:08 53.42390 -6.24635 226 ft 2 kts 158°
2026-04-30 13:08 53.42406 -6.24643 226 ft 2 kts 177°
2026-04-30 13:09 53.42421 -6.24637 226 ft 2 kts 232°
2026-04-30 13:09 53.42425 -6.24629 228 ft 0 kts 243°
2026-04-30 13:11 53.42425 -6.24630 226 ft 1 kts 243°
2026-04-30 13:11 53.42409 -6.24678 226 ft 7 kts 239°
2026-04-30 13:11 53.42366 -6.24765 226 ft 11 kts 225°
2026-04-30 13:11 53.42301 -6.24876 226 ft 15 kts 225°
2026-04-30 13:12 53.42223 -6.25026 229 ft 18 kts 234°
2026-04-30 13:12 53.42155 -6.25231 228 ft 23 kts 240°
2026-04-30 13:12 53.42084 -6.25445 230 ft 18 kts 240°
2026-04-30 13:13 53.42063 -6.25753 232 ft 15 kts 275°
2026-04-30 13:13 53.42077 -6.25995 232 ft 20 kts 276°
2026-04-30 13:13 53.42149 -6.26162 231 ft 8 kts 35°
2026-04-30 13:14 53.42203 -6.26075 226 ft 12 kts 45°
2026-04-30 13:14 53.42256 -6.26039 226 ft 2 kts 332°
2026-04-30 13:14 53.42261 -6.26155 226 ft 18 kts 275°
2026-04-30 13:15 53.42275 -6.26426 226 ft 28 kts 275°
2026-04-30 13:15 53.42318 -6.27229 226 ft 35 kts 274°
2026-04-30 13:15 53.42342 -6.27668 226 ft 42 kts 275°
2026-04-30 13:16 53.42367 -6.28106 226 ft 38 kts 276°
2026-04-30 13:16 53.42384 -6.28426 226 ft 26 kts 275°
2026-04-30 13:16 53.42403 -6.28751 226 ft 30 kts 275°
2026-04-30 13:17 53.42277 -6.29058 231 ft 15 kts 161°
2026-04-30 13:17 53.42240 -6.28943 239 ft 11 kts 95°
2026-04-30 13:17 53.42185 -6.27890 236 ft 85 kts 95°
2026-04-30 13:18 53.42124 -6.26729 254 ft 110 kts 92°
2026-04-30 13:18 53.41960 -6.24034 393 ft 121 kts 94°
2026-04-30 13:18 53.41861 -6.22557 399 ft 130 kts 96°
2026-04-30 13:19 53.41800 -6.20987 338 ft 137 kts 91°
2026-04-30 13:19 53.41715 -6.19347 322 ft 144 kts 94°
2026-04-30 13:19 53.41620 -6.17655 310 ft 148 kts 94°
2026-04-30 13:19 53.41520 -6.15898 308 ft 152 kts 93°
2026-04-30 13:20 53.41614 -6.14222 492 ft 141 kts 68°
2026-04-30 13:20 53.42304 -6.13019 536 ft 147 kts 26°
2026-04-30 13:20 53.43306 -6.13049 757 ft 151 kts 341°
2026-04-30 13:20 53.44117 -6.14179 929 ft 155 kts 308°
2026-04-30 13:21 53.44634 -6.15756 1056 ft 154 kts 292°
2026-04-30 13:21 53.44943 -6.17484 1175 ft 153 kts 279°
2026-04-30 13:21 53.45136 -6.19230 1347 ft 152 kts 274°
2026-04-30 13:22 53.45453 -6.22987 1297 ft 173 kts 274°
2026-04-30 13:22 53.45613 -6.25022 1278 ft 178 kts 275°
2026-04-30 13:22 53.45931 -6.29253 1283 ft 187 kts 274°
2026-04-30 13:23 53.46083 -6.31431 1330 ft 189 kts 274°
2026-04-30 13:23 53.46436 -6.35799 1327 ft 187 kts 269°
2026-04-30 13:24 53.44936 -6.38048 1355 ft 154 kts 158°
2026-04-30 13:24 53.43729 -6.35368 1288 ft 138 kts 119°
2026-04-30 13:25 53.42831 -6.32798 748 ft 120 kts 116°
2026-04-30 13:25 53.42275 -6.29928 424 ft 134 kts 96°
2026-04-30 13:26 53.42177 -6.27693 234 ft 5 kts 96°
2026-04-30 13:26 53.42149 -6.27193 234 ft 26 kts 94°
2026-04-30 13:27 53.42223 -6.27052 227 ft 0 kts
2026-04-30 13:28 53.42288 -6.27036 226 ft 5 kts 32°